Location: Gleizolles
(44.4833°N, 6.7667°E)
Time: 17:06:17
(UTC+00:00)

Transit 2A - Pass Details

Date: 04 July 2024
Orbit: 591 x 960 km, 66.7° (Epoch: 16 July)

Event Time Altitude Azimuth Distance (km) Brightness Sun altitude
Rises 22:08:11 0° 313° (NW) 3,612 10.6 -19.7°
Reaches altitude 10° 22:11:40 10° 294° (WNW) 2,688 9.4 -19.9°
Maximum altitude 22:15:27 17° 257° (WSW) 2,237 8.5 -20.2°
Enters shadow 22:19:05 11° 221° (SW) 2,644 8.5 -20.4°
